www.pogodaiklimat.ru

Погода и климат >> Архив погоды >> Мадагаскар >> Toamasina


ПОГОДА в Toamasina

  • Прогноз погоды в Toamasina
  • Монитор погоды в Toamasina
  • Климат города

АРХИВ ПОГОДЫ в Toamasina

Время (UTC), дата Ветер
(напр.,м/с)
 
Видим.   Явления Облачность Т
(С)
Тd
(С)
f
(%)
Тe
(С)
Тes
(С)
Комфортность P
(гПа)
Po
(гПа)
Тmin
(С)
Tmax
(С)
R
(мм)
R24
(мм)
S
(см)
00 7.12 штиль 0 15 км осадки на расстоянии {дождь} 9/9 500 м
[Cu Sc]
+23.4 +22.4 94 +32 +32 очень
душно
1013.0 1012.4 0.3
03 7.12 штиль 0 30 км 8/1 500 м
[Cu Sc Ci sp]
+23.9 +23.2 96 +32 +33 очень
душно
1013.8 1013.2 0.3
06 7.12 Ю 3 35 км 6/6 500 м
[Cu med, cong Ci sp]
+27.5 +23.0 76 +37 +41 очень
душно
1014.5 1013.8 +22.7 +31.2 0.3
09 7.12 Ю 6 35 км 6/4 500 м
[Cu Sc Ci sp]
+29.4 +23.8 72 +40 +45 очень
душно
1013.7 1013.1
12 7.12 ЮВ 6 30 км 9/3 500 м
[Cu Sc Ci sp]
+29.4 +22.2 65 +38 +40 очень
душно
1012.3 1011.7
15 7.12 ЮВ 3 20 км осадки на расстоянии 9/8 500 м
[Cu Sc Ci sp]
+27.5 +22.4 74 +36 +36 очень
душно
1012.8 1012.1 +30.3
18 7.12 штиль 0 20 км осадки на расстоянии 9/9 500 м
[Cu Sc]
+27.0 +22.6 77 +36 +36 очень
душно
1015.1 1014.4 +30.2
21 7.12 штиль 0 20 км осадки на расстоянии 9/9 500 м
[Cu Sc]
+26.5 +21.7 75 +34 +34 очень
душно
1014.5 1013.8
00 8.12 штиль 0 25 км 8/8 500 м
[Cu Sc]
+24.5 +22.9 91 +32 +32 очень
душно
1013.1 1012.5
03 8.12 штиль 0 30 км 6/4 500 м
[Cu Sc Ci sp]
+23.5 +22.5 94 +31 +31 очень
душно
1014.7 1014.0
06 8.12 Ю 2 35 км 6/6 500 м
[Cu Sc Ci sp]
+27.5 +22.1 72 +36 +41 очень
душно
1014.9 1014.2 +22.7 +30.3
09 8.12 ЮВ 4 35 км 4/4 500 м
[Cu Sc Ci sp]
+29.5 +21.4 62 +37 +46 очень
душно
1014.0 1013.3
12 8.12 ЮВ 4 35 км 4/4 500 м
[Cu Sc]
+29.8 +22.5 65 +39 +43 очень
душно
1012.6 1012.0
15 8.12 штиль 0 25 км 8/6 500 м
[Cb cap Ci ing]
+27.0 +22.3 75 +35 +35 очень
душно
1013.5 1012.9 +30.5
18 8.12 штиль 0 25 км 9/8 500 м
[Cu Sc Ci sp]
+24.5 +22.3 88 +32 +32 очень
душно
1015.5 1014.8 +30.5
21 8.12 штиль 0 25 км 5/5 500 м
[Cu Sc]
+22.2 +21.1 93 +29 +29 очень
душно
1014.6 1014.0
00 9.12 штиль 0 25 км 6/5 500 м
[Cu Sc Ci sp]
+21.0 +20.2 95 +26 +26 душно 1013.3 1012.7
03 9.12 штиль 0 25 км 8/3 500 м
[Cu Sc Ci sp]
+20.5 +19.7 95 +24 +25 комфорт 1014.8 1014.1
06 9.12 ЮЗ 4 35 км 6/5 500 м
[Cu Sc Ci sp]
+28.5 +20.2 61 +35 +39 очень
душно
1016.0 1015.4 +20.2 +30.5
09 9.12 ЮВ 5 35 км 4/3 500 м
[Cu Sc Ci sp]
+30.0 +21.6 61 +38 +46 очень
душно
1014.5 1013.9
12 9.12 ЮВ 6 35 км 4/1 500 м
[Cu Sc Ci sp]
+30.0 +22.8 65 +40 +43 очень
душно
1012.6 1011.9
15 9.12 ЮВ 4 30 км 3/1 500 м
[Cu Sc Ci sp]
+28.0 +23.7 77 +38 +38 очень
душно
1012.9 1012.3 +31.0
18 9.12 штиль 0 25 км 6/6 500 м
[Cu Sc]
+25.0 +23.2 90 +33 +33 очень
душно
1015.2 1014.6 +31.0
21 9.12 штиль 0 25 км 6/6 500 м
[Cu Sc]
+22.9 +22.0 95 +31 +31 очень
душно
1014.4 1013.8
00 10.12 штиль 0 25 км 1/1 500 м
[Cu Sc]
+21.5 +21.0 97 +27 +27 душно 1013.2 1012.6
03 10.12 штиль 0 30 км 1/1 500 м
[Cu Sc]
+21.5 +20.7 95 +27 +28 душно 1014.7 1014.1
06 10.12 ЮВ 4 35 км 3/3 500 м
[Cu Sc]
+30.0 +21.9 62 +39 +45 очень
душно
1014.8 1014.2 +20.0 +31.0
09 10.12 Ю 6 35 км 3/3 500 м
[Cu Sc]
+30.5 +23.8 67 +42 +47 опасность
перегрева
1014.3 1013.7
12 10.12 ЮВ 4 35 км 3/3 500 м
[Cu Sc]
+30.3 +24.5 71 +43 +48 опасность
перегрева
1012.4 1011.7
15 10.12 ЮВ 2 30 км 1/1 500 м
[Cu Sc]
+28.2 +23.6 76 +38 +39 очень
душно
1012.6 1011.9 +31.2
18 10.12 С 1 25 км 1/1 500 м
[Cb cap]
+25.2 +23.8 92 +34 +34 очень
душно
1014.0 1013.3 +31.2
21 10.12 штиль 0 25 км 4/1 500 м
[Cu Sc Ci sp]
+23.2 +22.6 96 +32 +32 очень
душно
1014.2 1013.6
00 11.12 штиль 0 25 км 3/1 500 м
[Cu Sc Ci sp]
+22.3 +21.7 96 +29 +29 очень
душно
1012.5 1011.9
03 11.12 штиль 0 30 км 4/3 500 м
[Cu Sc Ci sp]
+22.4 +22.0 98 +30 +31 очень
душно
1013.8 1013.2
06 11.12 ЮВ 4 35 км 3/3 500 м
[Cu Sc Ci sp]
+29.2 +23.1 70 +39 +46 очень
душно
1014.8 1014.2 +21.6 +31.2
09 11.12 ЮВ 5 35 км 1/1 500 м
[Cu Sc Ci sp]
+29.8 +24.4 73 +42 +52 опасность
перегрева
1013.1 1012.5
12 11.12 ЮВ 5 35 км 3/3 500 м
[Cu Sc]
+30.6 +24.8 71 +43 +47 опасность
перегрева
1010.9 1010.3
15 11.12 В 4 30 км 3/1 500 м
[Cb cap Ci ing]
+28.3 +24.8 81 +40 +40 очень
душно
1011.4 1010.8 +31.2
18 11.12 С 2 25 км зарница 5/5 500 м
[Cb cap Ci ing]
+28.0 +24.7 82 +40 +40 очень
душно
1013.9 1013.3 +31.2
21 11.12 штиль 0 8000 м осадки на расстоянии {дождь} 8/8 500 м
[Cu Sc]
+25.3 +24.9 98 +36 +36 очень
душно
1014.1 1013.5 5
00 12.12 штиль 0 25 км {дождь} 5/5 500 м
[Cu Sc]
+24.2 +23.6 96 +33 +33 очень
душно
1013.1 1012.4 5
03 12.12 штиль 0 20 км осадки на расстоянии {дождь} 8/5 500 м
[Cu Sc Ci sp]
+24.5 +23.8 96 +33 +34 очень
душно
1015.1 1014.5 5
06 12.12 ЮВ 2 10 км осадки на расстоянии 8/8 500 м
[Cu Sc]
+29.0 +24.0 74 +40 +43 очень
душно
1015.7 1015.1 +23.6 +31.2 5
09 12.12 В 4 35 км 4/3 500 м
[Cu Sc Ci sp]
+30.8 +24.7 70 +44 +53 опасность
перегрева
1014.5 1013.9
12 12.12 В 5 35 км 3/3 500 м
[Cu Sc Ci sp]
+30.5 +24.9 72 +44 +47 опасность
перегрева
1013.1 1012.4
15 12.12 В 4 20 км осадки на расстоянии 6/5 500 м
[Cb cap Ac trans Ci sp]
+28.5 +24.7 80 +41 +41 опасность
перегрева
1013.7 1013.0 +31.5
18 12.12 В 4 15 км зарница 9/9 210 м
[Cb cap]
+28.0 +25.2 85 +41 +41 опасность
перегрева
1016.5 1015.9 +31.5
21 12.12 В 4 15 км осадки на расстоянии 8/8 500 м
[Cu Sc]
+27.7 +24.7 84 +39 +39 очень
душно
1016.2 1015.5
00 13.12 В 3 25 км 6/6 500 м
[Cu Sc]
+27.3 +24.2 83 +38 +38 очень
душно
1015.3 1014.6
03 13.12 ЮВ 3 25 км 8/8 500 м
[Cu Sc]
+27.7 +24.7 84 +39 +40 очень
душно
1016.2 1015.6 0.1
06 13.12 В 2 15 км осадки на расстоянии {дождь} 8/6 210 м
[Cu Sc Ci sp]
+28.8 +25.1 80 +42 +46 опасность
перегрева
1017.4 1016.8 +27.0 +31.5 1
09 13.12 ЮВ 5 30 км 6/6 500 м
[Cu Sc Ci sp]
+30.8 +25.5 73 +45 +49 опасность
перегрева
1016.3 1015.7 1
12 13.12 ЮВ 4 35 км 4/3 500 м
[Cu Sc Ci sp]
+30.2 +24.7 72 +43 +47 опасность
перегрева
1014.9 1014.2
15 13.12 В 3 25 км 4/3 500 м
[Cu Sc Ci sp]
+27.4 +24.4 84 +39 +39 очень
душно
1015.1 1014.5 +31.6
18 13.12 В 3 25 км зарница 8/8 500 м
[Cb cap]
+27.2 +24.0 83 +38 +38 очень
душно
1015.8 1015.2 +31.6

 

Местоположение метеостанции Toamasina (Мадагаскар): широта -18.11 долгота 49.40 высота над уровнем моря 6 м.

В архиве по умолчанию представлена погода в Toamasina за последнюю неделю. Архивные данные за месяц целиком и за предыдущие месяцы, начиная с января 2011 года, Вы можете получить, выбрав интересующий диапазон дат из раскрывающегося списка и нажав кнопку "Ввод!".


*Определитесь, кто Вы:
робот инопланетянин человек

Внимание! Время в таблицах - всемирное. Для получения местного времени необходимо прибавить поправку, которая в Toamasina равна 3 ч.

Смотрите также архив погоды в соседних городах и на ближайших метеорологических станциях:

Погода в Ambohitsilaozana (Мадагаскар) (109 км)
Погода в Nosy Boraha (Мадагаскар) (123 км)
Погода в Mahanoro (Мадагаскар) (201 км)
Погода в Antananarivo Airport (Мадагаскар) (217 км)
Погода в Antananarivo (Мадагаскар) (218 км)
Погода в Antsirabe (Мадагаскар) (310 км)
Погода в Antalaha (Мадагаскар) (371 км)
Погода в Antsohihy (Мадагаскар) (390 км)
Погода в Mananjary (Мадагаскар) (403 км)
Погода в Mahajanga (Мадагаскар) (424 км)

Пояснения к столбцам:

Ветер - указаны скорость ветра в м/с - средняя за 10 мин, порывы в срок и между сроками (в фигурных скобках) и направление, откуда дует ветер: С - северный, СВ - северо-восточный, В - восточный, ЮВ - юго-восточный, Ю - южный, ЮЗ - юго-западный, З - западный, СЗ - северо-западный.
Видимость - горизонтальная дальность видимости в метрах или километрах. При видимости от 1 до 10 км при отсутствии осадков обычно наблюдается дымка, при ухудшении видимости до 1 км и менее - туман. В сухую погоду видимость может ухудшаться дымом, пылью или мглою.
Явления - указаны атмосферные явления, наблюдавшиеся в срок или в последний час перед сроком; фигурными скобками обозначены явления, наблюдавшиеся между сроками (за 1-3 часа до срока); квадратными скобками обозначены град или гололедные отложения с указанием их диаметра в мм.
Облачность - указаны через наклонную черту общая и нижняя облачность в баллах и высота нижней границы облаков в метрах; квадратными скобками обозначены формы облаков: Ci - перистые, Cs - перисто-слоистые, Cc - перисто-кучевые, Ac - высококучевые, As - высокослоистые, Sc - слоисто-кучевые, Ns - слоисто-дождевые, Cu - кучевые, Cb - кучево-дождевые. Подробнее классификацию облаков см. в Атласе облаков (PDF).
T - Температура воздуха - температура, измеренная на высоте 2 м над землей.
Td - Температура точки росы - температура, при понижении до которой содержащийся в воздухе водяной пар достигнет насыщения.
f - Относительная влажность воздуха - влажноcть воздуха, измеренная на высоте 2 м над землей.
Te - Эффективная температура - температура, которую ощущает одетый по сезону человек в тени. Характеристика душности погоды. При расчете учитывается влияние влажности воздуха и скорости ветра на теплоощущения человека.
Tes - Эффективная температура на солнце - температура, которую ощущает человек, с поправкой на солнечный нагрев. Характеристика знойности погоды. Зависит от высоты солнца над горизонтом, облачности и скорости ветра. Ночью, в пасмурную погоду, а также при ветре 12 м/с и более поправка равна нулю.
P - Атмосферное давление - приведенное к уровню моря атмосферное давление.
Po - Атмосферное давление - измеренное на уровне метеостанции атмосферное давление.
Tmin - Минимальная температура - минимум температуры воздуха на высоте 2 м над землей.
Tmax - Максимальная температура - максимум температуры воздуха на высоте 2 м над землей.
R - Количество осадков - Количество выпавших осадков за период времени, мм. При наведении курсора мыши на число - период времени, за который выпало указанное количество осадков.
R24 - Количество осадков - Количество выпавших осадков за 24 часа, мм.
S - Снежный покров - Высота снежного покрова, см. При наведении курсора мыши на число - состояние снежного покрова и степень покрытия местности в баллах.